This demonstration page uses our WeatherBlox Daily Observations layout. Learn more.

Left ArrowRight Arrow

31.31129, -92.44514

Hourly Observations for December 19, 2020

Temp ( °F °C ) Dew Point ( °F °C ) Humidity (%) Winds ( mph kmh ) Pressure ( in mb ) Visibility ( mi km ) Precip ( " mm )
12:53 am 00:53 Cloudy 47 8.3 41 5 80 80 SSE 14 22 30.23 1024 10 16 0.00 0.00
1:53 am 01:53 Cloudy 47 8.3 42 5.6 83 83 SE 14 22 30.21 1023 10 16 0.00 0.00
2:53 am 02:53 Cloudy 47 8.3 43 6.1 86 86 SE 9 15 30.22 1023 10 16 0.00 0.00
3:53 am 03:53 Cloudy 47 8.3 43 6.1 86 86 SE 10 17 30.19 1023 10 16 0.00 0.00
4:53 am 04:53 Cloudy 47 8.3 43 6.1 86 86 SE 7 11 30.19 1022 10 16 0.00 0.00
5:53 am 05:53 Cloudy 47 8.3 43 6.1 86 86 SE 7 11 30.17 1022 10 16 0.00 0.00
6:53 am 06:53 Cloudy 47 8.3 44 6.7 90 90 SE 7 11 30.18 1022 10 16 0.00 0.00
7:53 am 07:53 Cloudy 48 8.9 44 6.7 86 86 ESE 7 11 30.19 1022 10 16 0.00 0.00
8:53 am 08:53 Mostly Cloudy 51 10.6 45 7.2 80 80 SE 13 20 30.16 1022 10 16 0.00 0.00
9:53 am 09:53 Cloudy 54 12.2 47 8.3 77 77 SE 14 22 30.16 1021 10 16 0.00 0.00
10:53 am 10:53 Cloudy 56 13.3 48 8.9 75 75 SE 10 17 30.14 1021 10 16 0.00 0.00
11:53 am 11:53 Partly Cloudy 59 15 50 10 72 72 SE 12 19 30.07 1018 10 16 0.00 0.00
12:53 pm 12:53 Cloudy with Light Rain 58 14.4 50 10 75 75 SE 8 13 30.03 1017 10 16 0.00 0.00
1:45 pm 13:45 Cloudy with Rain 56 13.3 54 12.2 93 93 SE 5 7 30.01 1016 2 3 0.09 2.29
1:53 pm 13:53 Cloudy with Rain 56 13.3 54 12.2 93 93 SE 3 6 30.03 1017 2 3 0.11 2.79
2:12 pm 14:12 Cloudy with Heavy Rain 54 12.2 54 12.2 100 100 NNW 9 15 30.03 1017 2 3 0.08 2.03
2:17 pm 14:17 Cloudy with Heavy Rain 54 12.2 53 11.7 97 97 NNW 14 22 30.03 1017 2 3 0.11 2.79
2:21 pm 14:21 Cloudy with Heavy Rain 54 12.2 53 11.7 97 97 N 15 24 30.03 1017 3 4 0.14 3.56
2:31 pm 14:31 Cloudy with Heavy Rain 53 11.7 53 11.7 100 100 N 17 28 30.04 1017 2 3 0.24 6.10
2:39 pm 14:39 Cloudy with Heavy Rain 53 11.7 52 11.1 96 96 N 12 19 30.05 1018 2 3 0.31 7.87
2:53 pm 14:53 Cloudy with Heavy Rain 53 11.7 52 11.1 96 96 N 10 17 30.08 1019 3 5 0.41 10.41
3:02 pm 15:02 Cloudy with Heavy Rain 53 11.7 52 11.1 96 96 N 9 15 30.06 1018 3 5 0.06 1.52
3:14 pm 15:14 Cloudy with Heavy Rain 53 11.7 52 11.1 96 96 NE 10 17 30.05 1018 3 4 0.13 3.30
3:22 pm 15:22 Cloudy with Rain 53 11.7 52 11.1 96 96 NE 10 17 30.04 1017 3 5 0.16 4.06
3:53 pm 15:53 Cloudy with Heavy Rain 53 11.7 52 11.1 96 96 NE 9 15 30.04 1017 3 5 0.33 8.38
4:03 pm 16:03 Cloudy with Heavy Rain 53 11.7 52 11.1 96 96 NE 7 11 30.04 1017 2 3 0.05 1.27
4:53 pm 16:53 Cloudy with Rain 52 11.1 52 11.1 100 100 E 8 13 30.05 1018 2 3 0.18 4.57
4:59 pm 16:59 Cloudy with Rain 52 11.1 52 11.1 100 100 E 9 15 30.03 1017 2 3 0.01 0.25
5:40 pm 17:40 Cloudy 52 11.1 52 11.1 100 100 E 3 6 30.03 1017 2 3 0.06 1.52
5:53 pm 17:53 Cloudy 52 11.1 52 11.1 100 100 E 6 9 30.03 1017 10 16 0.06 1.52
6:00 pm 18:00 Cloudy 52 11.1 52 11.1 100 100 NE 5 7 30.02 1017 10 16 0.00 0.00
6:53 pm 18:53 Cloudy 53 11.7 52 11.1 96 96 E 5 7 30.04 1017 10 16 0.00 0.00
7:53 pm 19:53 Cloudy 52 11.1 52 11.1 100 100 ESE 5 7 30.04 1017 10 16 0.00 0.00
8:38 pm 20:38 Cloudy 52 11.1 52 11.1 100 100 NNW 6 9 30.05 1018 10 16 0.00 0.00
8:53 pm 20:53 Cloudy 52 11.1 52 11.1 100 100 N 6 9 30.07 1018 10 16 0.00 0.00
9:24 pm 21:24 Cloudy 52 11.1 52 11.1 100 100 N 6 9 30.05 1018 10 16 0.00 0.00
9:53 pm 21:53 Cloudy 52 11.1 52 11.1 100 100 N 6 9 30.07 1018 10 16 0.00 0.00
10:03 pm 22:03 Cloudy 52 11.1 52 11.1 100 100 N 7 11 30.06 1018 9 14 0.00 0.00
10:19 pm 22:19 Cloudy with Mist and Fog 52 11.1 52 11.1 100 100 N 5 7 30.06 1018 6 10 0.00 0.00
10:53 pm 22:53 Cloudy with Mist and Fog 52 11.1 52 11.1 100 100 NNW 5 7 30.07 1018 4 6 0.00 0.00
11:12 pm 23:12 Cloudy with Mist and Fog 51 10.6 51 10.6 100 100 NNW 5 7 30.05 1018 3 5 0.00 0.00
11:27 pm 23:27 Cloudy with Mist and Fog 51 10.6 51 10.6 100 100 NNW 5 7 30.05 1018 3 4 0.00 0.00
11:53 pm 23:53 Cloudy with Mist and Fog 51 10.6 51 10.6 100 100 NNW 7 11 30.06 1018 2 3 0.00 0.00

Powered by AerisWeather